SCP
0 0 0 0 0 0 0 0 0 0 0 0 0 0 0 0 0 0 0 0 0 0 0 0 0 0 0 0 0 0 0 0 0 0 0 0 0 0
0 0 0 0 0 0 0 0 0 0 0 0 0 0 0 0 0 0 0 0 0 0 0 0 0 0 0 0 0 0 0 0 0 0 0 0 0 0
0 0 0 0 0 0 0 0 0 0 0 0 0 0 0 0 0 0 0 0 0 0 0 0 0 0 0 0 0 0 0 0 0 0 0 0 0 0
0 0 0 0 0 0 0 0 0 0 0 0 0 0 0 0 0 0 0 0 0 0 0 0 0 0 0 0 0 0 0 0 0 0 0 0 0 0
0 0 0 0 0 0 0 0 0 0 0 0 0 0 0 0 0 0 0 0 0 0 0 0 0 0 0 0 0 0 0 0 0 0 0 0 0 0
0 0 0 0 0 0 0 0 0 0 0 0 0 0 0 0 0 0 0 0 0 0 0 0 0 0 0 0 0 0 0 0 0 0 0 0 0 0
0 0 0 0 0 0 0 0 0 0 0 0 0 0 0 0 0 0 0 0 0 0 0 0 0 0 0 0 0 0 0 0 0 0 0 0 0 0
0 0 0 0 0 0 0 0 0 0 0 0 0 0 0 0 0 0 0 0 0 0 0 0 0 0 0 0 0 0 0 0 0 0 0 0 0 0
0 0 0 0 0 0 0 0 0 0 0 0 0 0 0 0 0 0 0 0 0 0 0 0 0 0 0 0 0 0 0 0 0 0 0 0 0 0
0 0 0 0 0 0 0 0 0 0 0 0 0 0 0 0 0 0 0 0 0 0 0 0 0 0 0 0 0 0 0 0 0 0 0 0 0 0
0 0 0 0 0 0 0 0 0 0 0 0 0 0 0 0 0 0 0 0 0 0 0 0 0 0 0 0 0 0 0 0 0 0 0 0 0 0
0 0 0 0 0 0 0 0 0 0 0 0 0 0 0 0 0 0 0 0 0 0 0 0 0 0 0 0 0 0 0 0 0 0 0 0 0 0
0 0 0 0 0 0 0 0 0 0 0 0 0 0 0 0 0 0 0 0 0 0 0 0 0 0 0 0 0 0 0 0 0 0 0 0 0 0
0 0 0 0 0 0 0 0 0 0 0 0 0 0 0 0 0 0 0 0 0 0 0 0 0 0 0 0 0 0 0 0 0 0 0 0 0 0
0 0 0 0 0 0 0 0 0 0 0 0 0 0 0 0 0 0 0 0 0 0 0 0 0 0 0 0 0 0 0 0 0 0 0 0 0 0
0 0 0 0 0 0 0 0 0 0 0 0 0 0 0 0 0 0 0 0 0 0 0 0 0 0 0 0 0 0 0 0 0 0 0 0 0 0
0 0 0 0 0 0 0 0 0 0 0 0 0 0 0 0 0 0 0 0 0 0 0 0 0 0 0 0 0 0 0 0 0 0 0 0 0 0
0 0 0 0 0 0 0 0 0 0 0 0 0 0 0 0 0 0 0 0 0 0 0 0 0 0 0 0 0 0 0 0 0 0 0 0 0 0
0 0 0 0 0 0 0 0 0 0 0 0 0 0 0 0 0 0 0 0 0 0 0 0 0 0 0 0 0 0 0 0 0 0 0 0 0 0
0 0 0 0 0 0 0 0 0 0 0 0 0 0 0 0 0 0 0 0 0 0 0 0 0 0 0 0 0 0 0 0 0 0 0 0 0 0
0 0 0 0 0 0 0 0 0 0 0 0 0 0 0 0 0 0 0 0 0 0 0 0 0 0 0 0 0 0 0 0 0 0 0 0 0 0
0 0 0 0 0 0 0 0 0 0 0 0 0 0 0 0 0 0 0 0 0 0 0 0 0 0 0 0 0 0 0 0 0 0 0 0 0 0
0 0 0 0 0 0 0 0 0 0 0 0 0 0 0 0 0 0 0 0 0 0 0 0 0 0 0 0 0 0 0 0 0 0 0 0 0 0
Wind_Speed
0 0 0 0 1 1 1 2 3 2 1 1 1 1 3 3 4 3 3 4 4 4 4 4 4 4 4 4 3 2 2 2 3 3 3 4 3 3
0 0 0 1 1 1 1 0 1 2 2 1 1 2 2 3 4 3 3 6 5 4 4 4 4 4 4 4 4 4 3 3 4 4 4 4 3 3
1 1 1 1 1 1 1 0 0 2 2 1 1 2 2 2 2 2 3 3 2 4 4 4 4 4 3 4 4 5 5 5 5 5 4 4 3 2
1 0 1 1 1 1 0 1 1 1 3 2 1 1 2 2 2 2 2 3 3 5 5 5 4 4 3 3 3 4 5 5 5 4 3 2 2 1
0 1 1 1 1 1 1 1 1 1 2 2 1 1 1 1 1 1 1 1 2 4 5 5 5 4 4 3 3 3 4 4 3 3 2 2 1 1
0 0 0 1 1 1 1 1 1 1 1 2 2 1 1 1 2 1 0 0 1 2 3 4 5 5 5 5 4 4 4 4 3 2 1 1 0 0
0 1 1 2 2 1 1 1 1 1 1 1 2 1 1 1 1 1 1 1 1 1 1 2 3 2 3 5 5 6 6 5 4 3 2 1 1 1
0 0 1 2 2 2 2 2 2 2 2 1 1 2 2 2 1 1 1 1 1 1 1 1 2 3 3 3 6 8 8 7 6 5 4 3 3 3
0 0 1 1 2 1 1 2 2 1 1 2 2 2 2 2 2 1 2 2 2 2 1 1 1 2 3 4 8 9 9 8 7 6 5 4 4 4
0 0 1 1 1 2 0 1 1 0 1 1 2 2 2 2 3 3 3 2 1 1 1 1 1 2 2 2 7 9 9 9 8 8 7 5 5 4
0 1 1 1 2 3 2 1 1 0 1 1 2 2 2 1 1 1 1 1 1 2 1 1 1 1 1 2 4 7 8 8 8 7 6 6 5 4
0 1 2 2 2 3 1 1 1 1 1 0 0 0 1 1 1 2 2 2 1 1 1 1 1 0 1 1 1 2 3 4 5 6 6 5 5 3
1 0 0 1 1 0 1 1 1 1 1 1 1 0 0 0 1 1 1 2 2 2 2 2 1 1 1 1 1 1 2 2 2 3 4 5 5 4
1 1 1 1 1 1 0 1 2 1 0 0 0 1 1 1 1 1 1 1 1 2 1 2 1 2 1 1 2 1 1 1 2 2 3 4 5 5
0 0 1 1 1 1 0 1 1 0 0 1 1 2 1 1 0 0 1 0 1 1 0 1 1 1 1 2 1 1 1 2 2 2 3 3 3 3
1 1 2 2 1 1 0 0 1 1 1 1 1 1 1 0 1 1 1 0 1 1 1 0 1 1 1 1 1 1 1 2 2 2 2 2 2 3
1 1 1 1 0 0 0 1 1 1 1 1 1 1 1 1 1 1 1 1 1 1 1 1 0 0 1 1 1 2 2 2 2 2 1 2 3 3
1 1 1 1 2 2 2 1 1 1 1 1 1 1 1 1 1 1 1 1 2 2 2 1 0 1 2 2 2 2 2 2 2 2 1 2 4 3
2 2 2 2 2 2 2 2 2 2 1 1 1 1 1 1 1 2 2 2 2 2 2 1 1 1 2 4 3 2 2 2 2 2 2 2 4 4
2 2 2 2 2 2 2 2 1 1 1 1 1 1 1 1 1 2 2 2 2 2 2 2 2 3 4 4 3 3 4 3 2 3 3 3 3 4
2 2 2 2 2 2 2 2 2 2 2 2 2 2 2 1 2 2 2 3 3 3 3 4 4 5 3 1 2 3 3 6 5 4 3 2 3 3
2 2 2 2 2 2 2 2 2 2 2 2 2 2 2 2 2 3 3 3 3 4 4 3 3 2 2 3 5 5 4 3 5 7 6 5 3 4
3 2 2 2 2 2 2 2 2 2 2 2 2 2 2 2 2 3 3 3 3 3 3 3 2 2 3 4 4 4 5 4 3 3 4 7 9 10
Wind_Direction
273 241 247 224 136 122 128 142 149 158 185 170 137 147 126 122 139 138 128 129 123 111 103 94 87 81 75 69 67 65 85 114 108 97 105 106 99 93
271 344 5 16 63 86 117 141 141 149 155 178 166 156 135 139 146 146 140 135 138 133 122 111 107 99 87 79 73 70 82 106 113 103 96 97 94 90
241 184 149 112 108 90 69 72 74 117 135 173 136 136 117 118 121 145 143 146 145 150 144 133 125 117 105 97 84 79 84 99 101 97 90 86 93 90
280 225 184 153 147 142 164 169 166 137 139 148 157 141 141 150 150 164 166 156 148 153 155 152 147 137 126 117 102 97 97 96 95 95 92 85 79 84
311 291 232 149 148 161 172 175 175 126 127 145 174 168 163 168 150 175 170 153 160 154 160 164 163 158 152 146 139 131 122 114 108 103 96 82 63 44
241 294 12 120 179 177 179 172 139 124 132 138 162 175 187 203 143 149 259 233 189 160 168 169 172 174 178 177 173 165 153 146 141 134 126 109 58 352
347 63 69 70 54 93 98 129 126 136 143 153 173 165 184 167 194 200 205 224 253 195 170 183 170 175 192 197 194 187 180 178 178 178 180 196 235 261
42 77 110 85 65 80 85 108 120 144 172 172 189 187 199 182 184 187 192 176 269 262 175 231 177 187 199 198 193 190 191 191 192 195 200 211 230 252
71 25 353 49 69 62 106 114 106 92 131 171 187 206 195 194 183 201 207 199 223 224 165 254 224 210 214 201 189 193 196 199 200 202 207 213 226 244
53 79 92 80 37 29 148 130 132 185 232 182 173 204 207 203 194 201 203 207 236 251 162 218 240 229 228 208 190 192 196 200 204 207 211 218 226 234
43 43 76 110 39 38 58 127 145 342 35 117 154 189 182 194 189 150 172 167 227 253 227 179 240 250 254 231 204 196 202 206 208 209 214 219 221 225
96 71 49 51 62 53 65 89 169 223 202 311 13 302 237 211 176 179 183 184 200 247 233 174 223 183 287 266 207 194 199 211 212 215 216 219 217 208
200 203 135 97 84 20 92 112 246 249 201 188 192 241 302 243 231 230 185 177 188 229 217 166 201 208 203 259 260 211 189 193 200 220 224 226 221 203
217 207 179 162 199 248 68 337 334 14 82 117 204 230 254 264 247 227 230 219 212 219 201 152 164 184 191 238 250 228 215 214 203 210 211 219 227 225
283 227 151 146 154 155 317 344 356 88 131 231 232 242 239 240 272 284 278 293 358 359 41 115 141 186 179 208 235 236 247 248 221 216 216 210 209 204
11 57 88 116 101 99 31 292 264 233 191 219 244 240 229 216 223 215 224 194 65 343 344 51 132 155 220 245 213 238 243 241 245 233 222 224 211 199
112 83 88 117 141 193 227 229 245 265 265 266 255 278 243 216 231 223 198 167 187 223 272 313 269 143 209 226 234 243 251 258 249 244 247 249 234 216
140 170 187 191 202 207 211 224 225 232 234 231 235 232 240 236 231 228 209 200 218 225 224 229 214 9 357 320 256 241 250 259 267 252 233 254 263 247
165 197 207 210 220 219 213 211 226 231 227 220 228 236 227 237 247 233 218 219 232 237 244 223 198 185 246 276 286 252 244 263 275 276 254 242 256 258
201 212 221 219 219 221 220 223 226 231 221 225 234 242 238 234 252 250 229 222 232 239 253 247 220 212 223 242 258 274 237 230 234 248 264 269 268 264
218 226 232 231 230 226 223 219 216 217 222 220 228 235 238 238 242 243 247 252 241 229 233 239 238 238 241 254 270 268 254 231 225 227 235 255 275 276
224 229 234 242 239 234 230 223 223 224 223 225 227 227 230 230 237 242 240 246 244 237 240 248 245 231 230 243 253 260 266 264 250 251 248 231 223 236
227 225 226 228 232 231 233 232 232 232 228 225 226 229 226 232 239 241 242 242 247 247 245 249 246 235 239 242 252 261 262 261 255 262 266 253 247 255